<?xml version="1.0" encoding="UTF-8" standalone="no" ?>
<gpx xmlns="http://www.topografix.com/GPX/1/1" xmlns:xsi="http://www.w3.org/2001/XMLSchema-instance" xsi:schemaLocation="http://www.topografix.com/GPX/1/1 http://www.topografix.com/GPX/1/1/gpx.xsd" version="1.1" creator="VisuGPX - https://www.visugpx.com">
  <metadata>
    <name>tour de la Jemaye</name>
    <desc><![CDATA[pour essai de sauvegarde, export impossible]]></desc>
  </metadata>
  <trk>
    <name><![CDATA[20180907152945-VftMM]]></name>
    <trkseg>
      <trkpt lat="45.15818" lon="0.28245">
        <ele>96</ele>
        <time>2011-12-01 11:02:36</time>
      </trkpt>
      <trkpt lat="45.1582" lon="0.28243">
        <ele>96</ele>
        <time>2011-12-01 11:02:37</time>
      </trkpt>
      <trkpt lat="45.15808" lon="0.28194">
        <ele>97</ele>
        <time>2011-12-01 11:03:05</time>
      </trkpt>
      <trkpt lat="45.15819" lon="0.28142">
        <ele>94</ele>
        <time>2011-12-01 11:03:25</time>
      </trkpt>
      <trkpt lat="45.15832" lon="0.28092">
        <ele>91</ele>
        <time>2011-12-01 11:03:51</time>
      </trkpt>
      <trkpt lat="45.15817" lon="0.28044">
        <ele>88</ele>
        <time>2011-12-01 11:04:21</time>
      </trkpt>
      <trkpt lat="45.15782" lon="0.28033">
        <ele>88</ele>
        <time>2011-12-01 11:05:37</time>
      </trkpt>
      <trkpt lat="45.15744" lon="0.28038">
        <ele>89</ele>
        <time>2011-12-01 11:05:55</time>
      </trkpt>
      <trkpt lat="45.15707" lon="0.28036">
        <ele>90</ele>
        <time>2011-12-01 11:06:05</time>
      </trkpt>
      <trkpt lat="45.1567" lon="0.28027">
        <ele>90</ele>
        <time>2011-12-01 11:06:17</time>
      </trkpt>
      <trkpt lat="45.15631" lon="0.28016">
        <ele>90</ele>
        <time>2011-12-01 11:06:28</time>
      </trkpt>
      <trkpt lat="45.15599" lon="0.28048">
        <ele>91</ele>
        <time>2011-12-01 11:06:39</time>
      </trkpt>
      <trkpt lat="45.15564" lon="0.28068">
        <ele>90</ele>
        <time>2011-12-01 11:06:49</time>
      </trkpt>
      <trkpt lat="45.15526" lon="0.28077">
        <ele>89</ele>
        <time>2011-12-01 11:06:58</time>
      </trkpt>
      <trkpt lat="45.15495" lon="0.28104">
        <ele>91</ele>
        <time>2011-12-01 11:07:10</time>
      </trkpt>
      <trkpt lat="45.15495" lon="0.28155">
        <ele>93</ele>
        <time>2011-12-01 11:07:32</time>
      </trkpt>
      <trkpt lat="45.15491" lon="0.28207">
        <ele>96</ele>
        <time>2011-12-01 11:07:47</time>
      </trkpt>
      <trkpt lat="45.15498" lon="0.28258">
        <ele>100</ele>
        <time>2011-12-01 11:08:07</time>
      </trkpt>
      <trkpt lat="45.15517" lon="0.28302">
        <ele>103</ele>
        <time>2011-12-01 11:08:35</time>
      </trkpt>
      <trkpt lat="45.15555" lon="0.28302">
        <ele>103</ele>
        <time>2011-12-01 11:08:57</time>
      </trkpt>
      <trkpt lat="45.15574" lon="0.28347">
        <ele>106</ele>
        <time>2011-12-01 11:09:13</time>
      </trkpt>
      <trkpt lat="45.15607" lon="0.2837">
        <ele>105</ele>
        <time>2011-12-01 11:09:36</time>
      </trkpt>
      <trkpt lat="45.15647" lon="0.28361">
        <ele>104</ele>
        <time>2011-12-01 11:09:44</time>
      </trkpt>
      <trkpt lat="45.15689" lon="0.28346">
        <ele>101</ele>
        <time>2011-12-01 11:09:50</time>
      </trkpt>
      <trkpt lat="45.15728" lon="0.28327">
        <ele>100</ele>
        <time>2011-12-01 11:09:55</time>
      </trkpt>
      <trkpt lat="45.15765" lon="0.28339">
        <ele>98</ele>
        <time>2011-12-01 11:10:00</time>
      </trkpt>
      <trkpt lat="45.158" lon="0.28322">
        <ele>97</ele>
        <time>2011-12-01 11:10:29</time>
      </trkpt>
      <trkpt lat="45.15814" lon="0.28273">
        <ele>97</ele>
        <time>2011-12-01 11:10:43</time>
      </trkpt>
      <trkpt lat="45.15809" lon="0.28221">
        <ele>97</ele>
        <time>2011-12-01 11:10:59</time>
      </trkpt>
      <trkpt lat="45.15812" lon="0.28168">
        <ele>96</ele>
        <time>2011-12-01 11:11:18</time>
      </trkpt>
      <trkpt lat="45.15824" lon="0.28118">
        <ele>93</ele>
        <time>2011-12-01 11:11:37</time>
      </trkpt>
      <trkpt lat="45.1583" lon="0.28065">
        <ele>89</ele>
        <time>2011-12-01 11:11:51</time>
      </trkpt>
      <trkpt lat="45.15796" lon="0.28045">
        <ele>88</ele>
        <time>2011-12-01 11:12:04</time>
      </trkpt>
      <trkpt lat="45.15759" lon="0.28042">
        <ele>89</ele>
        <time>2011-12-01 11:12:33</time>
      </trkpt>
      <trkpt lat="45.15721" lon="0.28047">
        <ele>90</ele>
        <time>2011-12-01 11:13:11</time>
      </trkpt>
      <trkpt lat="45.15679" lon="0.28043">
        <ele>90</ele>
        <time>2011-12-01 11:13:19</time>
      </trkpt>
      <trkpt lat="45.15645" lon="0.28028">
        <ele>90</ele>
        <time>2011-12-01 11:13:27</time>
      </trkpt>
      <trkpt lat="45.15609" lon="0.28038">
        <ele>90</ele>
        <time>2011-12-01 11:13:40</time>
      </trkpt>
      <trkpt lat="45.15579" lon="0.28068">
        <ele>90</ele>
        <time>2011-12-01 11:13:52</time>
      </trkpt>
      <trkpt lat="45.15541" lon="0.28079">
        <ele>90</ele>
        <time>2011-12-01 11:14:05</time>
      </trkpt>
      <trkpt lat="45.15507" lon="0.28097">
        <ele>91</ele>
        <time>2011-12-01 11:14:17</time>
      </trkpt>
      <trkpt lat="45.15477" lon="0.28068">
        <ele>88</ele>
        <time>2011-12-01 11:14:36</time>
      </trkpt>
      <trkpt lat="45.15461" lon="0.28022">
        <ele>87</ele>
        <time>2011-12-01 11:14:53</time>
      </trkpt>
      <trkpt lat="45.15424" lon="0.28041">
        <ele>87</ele>
        <time>2011-12-01 11:15:07</time>
      </trkpt>
      <trkpt lat="45.15396" lon="0.28076">
        <ele>88</ele>
        <time>2011-12-01 11:15:19</time>
      </trkpt>
      <trkpt lat="45.15373" lon="0.28115">
        <ele>90</ele>
        <time>2011-12-01 11:15:29</time>
      </trkpt>
      <trkpt lat="45.15344" lon="0.28147">
        <ele>89</ele>
        <time>2011-12-01 11:15:41</time>
      </trkpt>
      <trkpt lat="45.1531" lon="0.28118">
        <ele>88</ele>
        <time>2011-12-01 11:15:58</time>
      </trkpt>
      <trkpt lat="45.15275" lon="0.28102">
        <ele>87</ele>
        <time>2011-12-01 11:16:15</time>
      </trkpt>
      <trkpt lat="45.1525" lon="0.28065">
        <ele>87</ele>
        <time>2011-12-01 11:16:28</time>
      </trkpt>
      <trkpt lat="45.15226" lon="0.28024">
        <ele>90</ele>
        <time>2011-12-01 11:16:42</time>
      </trkpt>
      <trkpt lat="45.1519" lon="0.28015">
        <ele>92</ele>
        <time>2011-12-01 11:16:59</time>
      </trkpt>
      <trkpt lat="45.15151" lon="0.28023">
        <ele>94</ele>
        <time>2011-12-01 11:17:15</time>
      </trkpt>
      <trkpt lat="45.15114" lon="0.28023">
        <ele>94</ele>
        <time>2011-12-01 11:17:30</time>
      </trkpt>
      <trkpt lat="45.15076" lon="0.28027">
        <ele>96</ele>
        <time>2011-12-01 11:17:47</time>
      </trkpt>
      <trkpt lat="45.15037" lon="0.28023">
        <ele>97</ele>
        <time>2011-12-01 11:18:00</time>
      </trkpt>
      <trkpt lat="45.15001" lon="0.28032">
        <ele>97</ele>
        <time>2011-12-01 11:18:12</time>
      </trkpt>
      <trkpt lat="45.14979" lon="0.28077">
        <ele>98</ele>
        <time>2011-12-01 11:18:24</time>
      </trkpt>
      <trkpt lat="45.14948" lon="0.28102">
        <ele>97</ele>
        <time>2011-12-01 11:18:36</time>
      </trkpt>
      <trkpt lat="45.14925" lon="0.28142">
        <ele>97</ele>
        <time>2011-12-01 11:18:49</time>
      </trkpt>
      <trkpt lat="45.14893" lon="0.28168">
        <ele>96</ele>
        <time>2011-12-01 11:19:02</time>
      </trkpt>
      <trkpt lat="45.14858" lon="0.28159">
        <ele>101</ele>
        <time>2011-12-01 11:19:14</time>
      </trkpt>
      <trkpt lat="45.14823" lon="0.28137">
        <ele>104</ele>
        <time>2011-12-01 11:19:27</time>
      </trkpt>
      <trkpt lat="45.14789" lon="0.28119">
        <ele>105</ele>
        <time>2011-12-01 11:19:42</time>
      </trkpt>
      <trkpt lat="45.14751" lon="0.28114">
        <ele>105</ele>
        <time>2011-12-01 11:19:56</time>
      </trkpt>
      <trkpt lat="45.14729" lon="0.28073">
        <ele>107</ele>
        <time>2011-12-01 11:20:10</time>
      </trkpt>
      <trkpt lat="45.14712" lon="0.28026">
        <ele>109</ele>
        <time>2011-12-01 11:20:26</time>
      </trkpt>
      <trkpt lat="45.14693" lon="0.2798">
        <ele>112</ele>
        <time>2011-12-01 11:20:43</time>
      </trkpt>
      <trkpt lat="45.14697" lon="0.27929">
        <ele>112</ele>
        <time>2011-12-01 11:21:58</time>
      </trkpt>
      <trkpt lat="45.1473" lon="0.27905">
        <ele>112</ele>
        <time>2011-12-01 11:22:16</time>
      </trkpt>
      <trkpt lat="45.14762" lon="0.27877">
        <ele>112</ele>
        <time>2011-12-01 11:22:32</time>
      </trkpt>
      <trkpt lat="45.14797" lon="0.27849">
        <ele>111</ele>
        <time>2011-12-01 11:22:44</time>
      </trkpt>
      <trkpt lat="45.14829" lon="0.27825">
        <ele>110</ele>
        <time>2011-12-01 11:22:50</time>
      </trkpt>
      <trkpt lat="45.14864" lon="0.278">
        <ele>107</ele>
        <time>2011-12-01 11:22:57</time>
      </trkpt>
      <trkpt lat="45.14896" lon="0.27775">
        <ele>106</ele>
        <time>2011-12-01 11:23:11</time>
      </trkpt>
      <trkpt lat="45.14932" lon="0.27752">
        <ele>105</ele>
        <time>2011-12-01 11:23:22</time>
      </trkpt>
      <trkpt lat="45.14966" lon="0.27728">
        <ele>103</ele>
        <time>2011-12-01 11:23:31</time>
      </trkpt>
      <trkpt lat="45.15001" lon="0.27704">
        <ele>101</ele>
        <time>2011-12-01 11:23:42</time>
      </trkpt>
      <trkpt lat="45.15026" lon="0.27667">
        <ele>100</ele>
        <time>2011-12-01 11:23:50</time>
      </trkpt>
      <trkpt lat="45.15045" lon="0.27624">
        <ele>97</ele>
        <time>2011-12-01 11:24:00</time>
      </trkpt>
      <trkpt lat="45.15062" lon="0.27577">
        <ele>97</ele>
        <time>2011-12-01 11:24:10</time>
      </trkpt>
      <trkpt lat="45.15079" lon="0.27526">
        <ele>99</ele>
        <time>2011-12-01 11:24:21</time>
      </trkpt>
      <trkpt lat="45.15104" lon="0.27485">
        <ele>100</ele>
        <time>2011-12-01 11:24:30</time>
      </trkpt>
      <trkpt lat="45.15117" lon="0.27436">
        <ele>100</ele>
        <time>2011-12-01 11:24:40</time>
      </trkpt>
      <trkpt lat="45.15128" lon="0.27383">
        <ele>103</ele>
        <time>2011-12-01 11:24:52</time>
      </trkpt>
      <trkpt lat="45.15146" lon="0.27337">
        <ele>104</ele>
        <time>2011-12-01 11:25:05</time>
      </trkpt>
      <trkpt lat="45.15161" lon="0.2729">
        <ele>107</ele>
        <time>2011-12-01 11:25:19</time>
      </trkpt>
      <trkpt lat="45.15174" lon="0.27241">
        <ele>111</ele>
        <time>2011-12-01 11:25:37</time>
      </trkpt>
      <trkpt lat="45.15191" lon="0.27195">
        <ele>112</ele>
        <time>2011-12-01 11:30:22</time>
      </trkpt>
      <trkpt lat="45.15205" lon="0.27146">
        <ele>112</ele>
        <time>2011-12-01 11:30:33</time>
      </trkpt>
      <trkpt lat="45.15218" lon="0.27097">
        <ele>112</ele>
        <time>2011-12-01 11:31:06</time>
      </trkpt>
      <trkpt lat="45.15255" lon="0.27085">
        <ele>112</ele>
        <time>2011-12-01 11:31:19</time>
      </trkpt>
      <trkpt lat="45.15294" lon="0.27089">
        <ele>112</ele>
        <time>2011-12-01 11:31:28</time>
      </trkpt>
      <trkpt lat="45.15333" lon="0.27085">
        <ele>113</ele>
        <time>2011-12-01 11:31:38</time>
      </trkpt>
      <trkpt lat="45.15371" lon="0.27062">
        <ele>110</ele>
        <time>2011-12-01 11:31:48</time>
      </trkpt>
      <trkpt lat="45.15408" lon="0.27036">
        <ele>109</ele>
        <time>2011-12-01 11:31:55</time>
      </trkpt>
      <trkpt lat="45.15442" lon="0.27009">
        <ele>108</ele>
        <time>2011-12-01 11:32:01</time>
      </trkpt>
      <trkpt lat="45.15476" lon="0.26985">
        <ele>107</ele>
        <time>2011-12-01 11:32:07</time>
      </trkpt>
      <trkpt lat="45.15511" lon="0.26961">
        <ele>107</ele>
        <time>2011-12-01 11:32:13</time>
      </trkpt>
      <trkpt lat="45.15546" lon="0.26944">
        <ele>107</ele>
        <time>2011-12-01 11:32:18</time>
      </trkpt>
      <trkpt lat="45.15584" lon="0.26936">
        <ele>106</ele>
        <time>2011-12-01 11:32:23</time>
      </trkpt>
      <trkpt lat="45.15625" lon="0.26944">
        <ele>106</ele>
        <time>2011-12-01 11:32:29</time>
      </trkpt>
      <trkpt lat="45.1566" lon="0.26934">
        <ele>105</ele>
        <time>2011-12-01 11:32:38</time>
      </trkpt>
      <trkpt lat="45.15694" lon="0.26952">
        <ele>103</ele>
        <time>2011-12-01 11:32:48</time>
      </trkpt>
      <trkpt lat="45.15731" lon="0.26965">
        <ele>102</ele>
        <time>2011-12-01 11:32:57</time>
      </trkpt>
      <trkpt lat="45.15765" lon="0.26993">
        <ele>99</ele>
        <time>2011-12-01 11:33:05</time>
      </trkpt>
      <trkpt lat="45.15794" lon="0.27022">
        <ele>99</ele>
        <time>2011-12-01 11:33:11</time>
      </trkpt>
      <trkpt lat="45.15828" lon="0.27054">
        <ele>98</ele>
        <time>2011-12-01 11:33:18</time>
      </trkpt>
      <trkpt lat="45.1586" lon="0.2708">
        <ele>95</ele>
        <time>2011-12-01 11:33:24</time>
      </trkpt>
      <trkpt lat="45.15887" lon="0.27121">
        <ele>96</ele>
        <time>2011-12-01 11:33:30</time>
      </trkpt>
      <trkpt lat="45.15922" lon="0.27144">
        <ele>94</ele>
        <time>2011-12-01 11:33:41</time>
      </trkpt>
      <trkpt lat="45.15952" lon="0.27174">
        <ele>95</ele>
        <time>2011-12-01 11:33:52</time>
      </trkpt>
      <trkpt lat="45.15971" lon="0.27218">
        <ele>94</ele>
        <time>2011-12-01 11:34:02</time>
      </trkpt>
      <trkpt lat="45.15988" lon="0.27265">
        <ele>93</ele>
        <time>2011-12-01 11:34:13</time>
      </trkpt>
      <trkpt lat="45.15991" lon="0.27316">
        <ele>92</ele>
        <time>2011-12-01 11:34:24</time>
      </trkpt>
      <trkpt lat="45.15993" lon="0.27367">
        <ele>92</ele>
        <time>2011-12-01 11:34:32</time>
      </trkpt>
      <trkpt lat="45.15994" lon="0.2742">
        <ele>91</ele>
        <time>2011-12-01 11:34:39</time>
      </trkpt>
      <trkpt lat="45.16008" lon="0.27476">
        <ele>90</ele>
        <time>2011-12-01 11:34:45</time>
      </trkpt>
      <trkpt lat="45.15999" lon="0.2753">
        <ele>89</ele>
        <time>2011-12-01 11:34:52</time>
      </trkpt>
      <trkpt lat="45.16" lon="0.2758">
        <ele>89</ele>
        <time>2011-12-01 11:35:50</time>
      </trkpt>
      <trkpt lat="45.16006" lon="0.27633">
        <ele>87</ele>
        <time>2011-12-01 11:36:14</time>
      </trkpt>
      <trkpt lat="45.16014" lon="0.27685">
        <ele>87</ele>
        <time>2011-12-01 11:36:24</time>
      </trkpt>
      <trkpt lat="45.16018" lon="0.27738">
        <ele>87</ele>
        <time>2011-12-01 11:36:35</time>
      </trkpt>
      <trkpt lat="45.16026" lon="0.2779">
        <ele>88</ele>
        <time>2011-12-01 11:36:49</time>
      </trkpt>
      <trkpt lat="45.16043" lon="0.27836">
        <ele>88</ele>
        <time>2011-12-01 13:23:43</time>
      </trkpt>
      <trkpt lat="45.1606" lon="0.27883">
        <ele>89</ele>
        <time>2011-12-01 13:23:56</time>
      </trkpt>
      <trkpt lat="45.16063" lon="0.27934">
        <ele>90</ele>
        <time>2011-12-01 13:26:59</time>
      </trkpt>
      <trkpt lat="45.16045" lon="0.2798">
        <ele>90</ele>
        <time>2011-12-01 13:27:13</time>
      </trkpt>
      <trkpt lat="45.16007" lon="0.2799">
        <ele>89</ele>
        <time>2011-12-01 13:27:31</time>
      </trkpt>
      <trkpt lat="45.15971" lon="0.27983">
        <ele>87</ele>
        <time>2011-12-01 13:27:45</time>
      </trkpt>
      <trkpt lat="45.1597" lon="0.28034">
        <ele>89</ele>
        <time>2011-12-01 13:28:01</time>
      </trkpt>
      <trkpt lat="45.15965" lon="0.28085">
        <ele>91</ele>
        <time>2011-12-01 13:30:23</time>
      </trkpt>
      <trkpt lat="45.15948" lon="0.2814">
        <ele>92</ele>
        <time>2011-12-01 13:30:32</time>
      </trkpt>
      <trkpt lat="45.15939" lon="0.28196">
        <ele>93</ele>
        <time>2011-12-01 13:30:38</time>
      </trkpt>
      <trkpt lat="45.15924" lon="0.28243">
        <ele>92</ele>
        <time>2011-12-01 13:30:45</time>
      </trkpt>
      <trkpt lat="45.15918" lon="0.28297">
        <ele>94</ele>
        <time>2011-12-01 13:30:54</time>
      </trkpt>
      <trkpt lat="45.15922" lon="0.2835">
        <ele>94</ele>
        <time>2011-12-01 13:31:32</time>
      </trkpt>
      <trkpt lat="45.15925" lon="0.284">
        <ele>93</ele>
        <time>2011-12-01 13:31:46</time>
      </trkpt>
      <trkpt lat="45.15888" lon="0.28396">
        <ele>93</ele>
        <time>2011-12-01 13:32:19</time>
      </trkpt>
      <trkpt lat="45.15861" lon="0.28361">
        <ele>94</ele>
        <time>2011-12-01 13:32:37</time>
      </trkpt>
      <trkpt lat="45.15865" lon="0.2831">
        <ele>94</ele>
        <time>2011-12-01 13:32:52</time>
      </trkpt>
      <trkpt lat="45.15862" lon="0.28259">
        <ele>94</ele>
        <time>2011-12-01 13:33:02</time>
      </trkpt>
      <trkpt lat="45.1586" lon="0.28205">
        <ele>94</ele>
        <time>2011-12-01 13:33:12</time>
      </trkpt>
      <trkpt lat="45.15859" lon="0.28153">
        <ele>92</ele>
        <time>2011-12-01 13:33:23</time>
      </trkpt>
      <trkpt lat="45.15852" lon="0.28102">
        <ele>90</ele>
        <time>2011-12-01 13:33:36</time>
      </trkpt>
      <trkpt lat="45.15825" lon="0.28067">
        <ele>89</ele>
        <time>2011-12-01 13:33:49</time>
      </trkpt>
      <trkpt lat="45.15789" lon="0.28051">
        <ele>89</ele>
        <time>2011-12-01 13:33:59</time>
      </trkpt>
      <trkpt lat="45.1575" lon="0.28045">
        <ele>90</ele>
        <time>2011-12-01 13:34:25</time>
      </trkpt>
      <trkpt lat="45.15713" lon="0.28038">
        <ele>90</ele>
        <time>2011-12-01 13:34:40</time>
      </trkpt>
      <trkpt lat="45.15676" lon="0.28028">
        <ele>90</ele>
        <time>2011-12-01 13:34:54</time>
      </trkpt>
      <trkpt lat="45.15639" lon="0.28029">
        <ele>90</ele>
        <time>2011-12-01 13:35:05</time>
      </trkpt>
      <trkpt lat="45.15608" lon="0.28062">
        <ele>91</ele>
        <time>2011-12-01 13:35:16</time>
      </trkpt>
      <trkpt lat="45.15574" lon="0.28079">
        <ele>91</ele>
        <time>2011-12-01 13:35:29</time>
      </trkpt>
      <trkpt lat="45.15537" lon="0.28086">
        <ele>92</ele>
        <time>2011-12-01 13:35:41</time>
      </trkpt>
      <trkpt lat="45.15505" lon="0.2811">
        <ele>92</ele>
        <time>2011-12-01 13:35:51</time>
      </trkpt>
      <trkpt lat="45.15509" lon="0.28163">
        <ele>94</ele>
        <time>2011-12-01 13:36:01</time>
      </trkpt>
      <trkpt lat="45.15496" lon="0.28211">
        <ele>96</ele>
        <time>2011-12-01 13:36:08</time>
      </trkpt>
      <trkpt lat="45.15505" lon="0.28262">
        <ele>101</ele>
        <time>2011-12-01 13:36:17</time>
      </trkpt>
      <trkpt lat="45.1551" lon="0.28313">
        <ele>103</ele>
        <time>2011-12-01 13:36:38</time>
      </trkpt>
      <trkpt lat="45.15546" lon="0.28303">
        <ele>103</ele>
        <time>2011-12-01 13:38:50</time>
      </trkpt>
      <trkpt lat="45.15574" lon="0.28336">
        <ele>106</ele>
        <time>2011-12-01 13:39:12</time>
      </trkpt>
      <trkpt lat="45.1559" lon="0.28383">
        <ele>106</ele>
        <time>2011-12-01 13:39:31</time>
      </trkpt>
      <trkpt lat="45.15628" lon="0.28373">
        <ele>104</ele>
        <time>2011-12-01 13:39:48</time>
      </trkpt>
      <trkpt lat="45.15664" lon="0.28361">
        <ele>103</ele>
        <time>2011-12-01 13:39:56</time>
      </trkpt>
      <trkpt lat="45.15704" lon="0.28346">
        <ele>100</ele>
        <time>2011-12-01 13:40:02</time>
      </trkpt>
      <trkpt lat="45.15742" lon="0.28336">
        <ele>100</ele>
        <time>2011-12-01 13:40:10</time>
      </trkpt>
      <trkpt lat="45.15778" lon="0.28346">
        <ele>97</ele>
        <time>2011-12-01 13:40:31</time>
      </trkpt>
      <trkpt lat="45.15814" lon="0.2834">
        <ele>95</ele>
        <time>2011-12-01 13:40:49</time>
      </trkpt>
      <trkpt lat="45.15807" lon="0.28391">
        <ele>96</ele>
        <time>2011-12-01 13:41:06</time>
      </trkpt>
      <trkpt lat="45.15799" lon="0.2844">
        <ele>95</ele>
        <time>2011-12-01 13:41:23</time>
      </trkpt>
      <trkpt lat="45.15795" lon="0.28493">
        <ele>94</ele>
        <time>2011-12-01 13:41:38</time>
      </trkpt>
      <trkpt lat="45.15786" lon="0.28542">
        <ele>95</ele>
        <time>2011-12-01 13:41:53</time>
      </trkpt>
      <trkpt lat="45.15783" lon="0.28593">
        <ele>99</ele>
        <time>2011-12-01 13:42:06</time>
      </trkpt>
      <trkpt lat="45.1578" lon="0.28644">
        <ele>100</ele>
        <time>2011-12-01 13:42:20</time>
      </trkpt>
      <trkpt lat="45.15775" lon="0.28696">
        <ele>102</ele>
        <time>2011-12-01 13:42:40</time>
      </trkpt>
      <trkpt lat="45.15746" lon="0.2873">
        <ele>107</ele>
        <time>2011-12-01 13:43:04</time>
      </trkpt>
      <trkpt lat="45.15715" lon="0.28755">
        <ele>109</ele>
        <time>2011-12-01 13:43:27</time>
      </trkpt>
      <trkpt lat="45.15694" lon="0.28797">
        <ele>110</ele>
        <time>2011-12-01 13:43:49</time>
      </trkpt>
      <trkpt lat="45.15707" lon="0.28847">
        <ele>111</ele>
        <time>2011-12-01 13:44:09</time>
      </trkpt>
      <trkpt lat="45.15703" lon="0.289">
        <ele>111</ele>
        <time>2011-12-01 13:44:24</time>
      </trkpt>
      <trkpt lat="45.15703" lon="0.28951">
        <ele>112</ele>
        <time>2011-12-01 13:44:40</time>
      </trkpt>
      <trkpt lat="45.15731" lon="0.28984">
        <ele>112</ele>
        <time>2011-12-01 13:44:56</time>
      </trkpt>
      <trkpt lat="45.1575" lon="0.29028">
        <ele>114</ele>
        <time>2011-12-01 13:46:49</time>
      </trkpt>
      <trkpt lat="45.15734" lon="0.29073">
        <ele>115</ele>
        <time>2011-12-01 13:47:17</time>
      </trkpt>
      <trkpt lat="45.15726" lon="0.29124">
        <ele>117</ele>
        <time>2011-12-01 13:47:38</time>
      </trkpt>
      <trkpt lat="45.15718" lon="0.29176">
        <ele>116</ele>
        <time>2011-12-01 13:47:57</time>
      </trkpt>
      <trkpt lat="45.15704" lon="0.29225">
        <ele>115</ele>
        <time>2011-12-01 13:48:13</time>
      </trkpt>
      <trkpt lat="45.15676" lon="0.29263">
        <ele>112</ele>
        <time>2011-12-01 13:48:26</time>
      </trkpt>
      <trkpt lat="45.15643" lon="0.29297">
        <ele>110</ele>
        <time>2011-12-01 13:48:33</time>
      </trkpt>
      <trkpt lat="45.15606" lon="0.29318">
        <ele>109</ele>
        <time>2011-12-01 13:48:40</time>
      </trkpt>
      <trkpt lat="45.15567" lon="0.29332">
        <ele>109</ele>
        <time>2011-12-01 13:48:46</time>
      </trkpt>
      <trkpt lat="45.15533" lon="0.29347">
        <ele>109</ele>
        <time>2011-12-01 13:48:52</time>
      </trkpt>
      <trkpt lat="45.15496" lon="0.2936">
        <ele>111</ele>
        <time>2011-12-01 13:48:59</time>
      </trkpt>
      <trkpt lat="45.15458" lon="0.29368">
        <ele>111</ele>
        <time>2011-12-01 13:49:07</time>
      </trkpt>
      <trkpt lat="45.15422" lon="0.29366">
        <ele>112</ele>
        <time>2011-12-01 13:49:17</time>
      </trkpt>
      <trkpt lat="45.15383" lon="0.29367">
        <ele>113</ele>
        <time>2011-12-01 13:49:30</time>
      </trkpt>
      <trkpt lat="45.15347" lon="0.29382">
        <ele>113</ele>
        <time>2011-12-01 13:49:46</time>
      </trkpt>
      <trkpt lat="45.15345" lon="0.29435">
        <ele>111</ele>
        <time>2011-12-01 13:50:05</time>
      </trkpt>
      <trkpt lat="45.15349" lon="0.29487">
        <ele>110</ele>
        <time>2011-12-01 13:50:12</time>
      </trkpt>
      <trkpt lat="45.15344" lon="0.29543">
        <ele>107</ele>
        <time>2011-12-01 13:50:18</time>
      </trkpt>
      <trkpt lat="45.1533" lon="0.2959">
        <ele>104</ele>
        <time>2011-12-01 13:50:23</time>
      </trkpt>
      <trkpt lat="45.15316" lon="0.29637">
        <ele>103</ele>
        <time>2011-12-01 13:50:28</time>
      </trkpt>
      <trkpt lat="45.15302" lon="0.29687">
        <ele>101</ele>
        <time>2011-12-01 13:50:33</time>
      </trkpt>
      <trkpt lat="45.15295" lon="0.29738">
        <ele>100</ele>
        <time>2011-12-01 13:50:42</time>
      </trkpt>
      <trkpt lat="45.15314" lon="0.29786">
        <ele>100</ele>
        <time>2011-12-01 13:51:17</time>
      </trkpt>
      <trkpt lat="45.15335" lon="0.29831">
        <ele>100</ele>
        <time>2011-12-01 13:51:29</time>
      </trkpt>
      <trkpt lat="45.15357" lon="0.29874">
        <ele>101</ele>
        <time>2011-12-01 13:51:39</time>
      </trkpt>
      <trkpt lat="45.15383" lon="0.29914">
        <ele>101</ele>
        <time>2011-12-01 13:51:49</time>
      </trkpt>
      <trkpt lat="45.1542" lon="0.29905">
        <ele>101</ele>
        <time>2011-12-01 13:52:01</time>
      </trkpt>
      <trkpt lat="45.15455" lon="0.29889">
        <ele>102</ele>
        <time>2011-12-01 13:52:16</time>
      </trkpt>
      <trkpt lat="45.15487" lon="0.29913">
        <ele>103</ele>
        <time>2011-12-01 13:52:36</time>
      </trkpt>
      <trkpt lat="45.15514" lon="0.29952">
        <ele>103</ele>
        <time>2011-12-01 13:52:54</time>
      </trkpt>
      <trkpt lat="45.1555" lon="0.29944">
        <ele>103</ele>
        <time>2011-12-01 13:53:10</time>
      </trkpt>
      <trkpt lat="45.15566" lon="0.2999">
        <ele>101</ele>
        <time>2011-12-01 13:53:30</time>
      </trkpt>
      <trkpt lat="45.15599" lon="0.30023">
        <ele>97</ele>
        <time>2011-12-01 13:53:40</time>
      </trkpt>
      <trkpt lat="45.1563" lon="0.30056">
        <ele>95</ele>
        <time>2011-12-01 13:53:46</time>
      </trkpt>
      <trkpt lat="45.15661" lon="0.30088">
        <ele>93</ele>
        <time>2011-12-01 13:53:51</time>
      </trkpt>
      <trkpt lat="45.15693" lon="0.30117">
        <ele>93</ele>
        <time>2011-12-01 13:53:56</time>
      </trkpt>
      <trkpt lat="45.15728" lon="0.30128">
        <ele>94</ele>
        <time>2011-12-01 13:54:03</time>
      </trkpt>
      <trkpt lat="45.15765" lon="0.30132">
        <ele>97</ele>
        <time>2011-12-01 13:54:15</time>
      </trkpt>
      <trkpt lat="45.15803" lon="0.30133">
        <ele>98</ele>
        <time>2011-12-01 13:54:34</time>
      </trkpt>
      <trkpt lat="45.1584" lon="0.30146">
        <ele>101</ele>
        <time>2011-12-01 13:55:02</time>
      </trkpt>
      <trkpt lat="45.15874" lon="0.30167">
        <ele>101</ele>
        <time>2011-12-01 13:55:15</time>
      </trkpt>
      <trkpt lat="45.15908" lon="0.30185">
        <ele>103</ele>
        <time>2011-12-01 13:55:38</time>
      </trkpt>
      <trkpt lat="45.1594" lon="0.30209">
        <ele>107</ele>
        <time>2011-12-01 13:56:29</time>
      </trkpt>
      <trkpt lat="45.1597" lon="0.3024">
        <ele>108</ele>
        <time>2011-12-01 13:57:22</time>
      </trkpt>
      <trkpt lat="45.15991" lon="0.30286">
        <ele>105</ele>
        <time>2011-12-01 13:57:43</time>
      </trkpt>
      <trkpt lat="45.16022" lon="0.30314">
        <ele>107</ele>
        <time>2011-12-01 13:57:54</time>
      </trkpt>
      <trkpt lat="45.16059" lon="0.30338">
        <ele>104</ele>
        <time>2011-12-01 13:58:00</time>
      </trkpt>
      <trkpt lat="45.16088" lon="0.30369">
        <ele>104</ele>
        <time>2011-12-01 13:58:05</time>
      </trkpt>
      <trkpt lat="45.16123" lon="0.30377">
        <ele>104</ele>
        <time>2011-12-01 13:58:25</time>
      </trkpt>
      <trkpt lat="45.16164" lon="0.30381">
        <ele>105</ele>
        <time>2011-12-01 14:03:08</time>
      </trkpt>
      <trkpt lat="45.16204" lon="0.30381">
        <ele>104</ele>
        <time>2011-12-01 14:03:14</time>
      </trkpt>
      <trkpt lat="45.16242" lon="0.30385">
        <ele>102</ele>
        <time>2011-12-01 14:03:20</time>
      </trkpt>
      <trkpt lat="45.16278" lon="0.30404">
        <ele>99</ele>
        <time>2011-12-01 14:03:31</time>
      </trkpt>
      <trkpt lat="45.1631" lon="0.30428">
        <ele>95</ele>
        <time>2011-12-01 14:03:39</time>
      </trkpt>
      <trkpt lat="45.16343" lon="0.30452">
        <ele>94</ele>
        <time>2011-12-01 14:03:49</time>
      </trkpt>
      <trkpt lat="45.16383" lon="0.30472">
        <ele>93</ele>
        <time>2011-12-01 14:03:58</time>
      </trkpt>
      <trkpt lat="45.1642" lon="0.30482">
        <ele>94</ele>
        <time>2011-12-01 14:04:05</time>
      </trkpt>
      <trkpt lat="45.16445" lon="0.30519">
        <ele>92</ele>
        <time>2011-12-01 14:04:16</time>
      </trkpt>
      <trkpt lat="45.16478" lon="0.3054">
        <ele>92</ele>
        <time>2011-12-01 14:04:30</time>
      </trkpt>
      <trkpt lat="45.16515" lon="0.30544">
        <ele>96</ele>
        <time>2011-12-01 14:04:51</time>
      </trkpt>
      <trkpt lat="45.16556" lon="0.3054">
        <ele>98</ele>
        <time>2011-12-01 14:05:06</time>
      </trkpt>
      <trkpt lat="45.16593" lon="0.30529">
        <ele>101</ele>
        <time>2011-12-01 14:05:16</time>
      </trkpt>
      <trkpt lat="45.16625" lon="0.305">
        <ele>102</ele>
        <time>2011-12-01 14:05:32</time>
      </trkpt>
      <trkpt lat="45.16658" lon="0.30479">
        <ele>102</ele>
        <time>2011-12-01 14:05:48</time>
      </trkpt>
      <trkpt lat="45.16693" lon="0.3046">
        <ele>103</ele>
        <time>2011-12-01 14:06:06</time>
      </trkpt>
      <trkpt lat="45.16728" lon="0.30443">
        <ele>105</ele>
        <time>2011-12-01 14:06:27</time>
      </trkpt>
      <trkpt lat="45.16762" lon="0.30423">
        <ele>107</ele>
        <time>2011-12-01 14:06:49</time>
      </trkpt>
      <trkpt lat="45.16795" lon="0.30402">
        <ele>110</ele>
        <time>2011-12-01 14:07:44</time>
      </trkpt>
      <trkpt lat="45.16828" lon="0.3038">
        <ele>111</ele>
        <time>2011-12-01 14:08:10</time>
      </trkpt>
      <trkpt lat="45.16864" lon="0.30372">
        <ele>111</ele>
        <time>2011-12-01 14:09:30</time>
      </trkpt>
      <trkpt lat="45.16898" lon="0.3035">
        <ele>110</ele>
        <time>2011-12-01 14:09:45</time>
      </trkpt>
      <trkpt lat="45.16931" lon="0.30329">
        <ele>107</ele>
        <time>2011-12-01 14:10:08</time>
      </trkpt>
      <trkpt lat="45.1692" lon="0.3028">
        <ele>107</ele>
        <time>2011-12-01 14:12:19</time>
      </trkpt>
      <trkpt lat="45.16919" lon="0.30228">
        <ele>109</ele>
        <time>2011-12-01 14:12:32</time>
      </trkpt>
      <trkpt lat="45.16908" lon="0.30177">
        <ele>112</ele>
        <time>2011-12-01 14:12:49</time>
      </trkpt>
      <trkpt lat="45.16882" lon="0.30138">
        <ele>113</ele>
        <time>2011-12-01 14:13:05</time>
      </trkpt>
      <trkpt lat="45.16858" lon="0.30099">
        <ele>114</ele>
        <time>2011-12-01 14:13:21</time>
      </trkpt>
      <trkpt lat="45.16834" lon="0.3006">
        <ele>114</ele>
        <time>2011-12-01 14:13:36</time>
      </trkpt>
      <trkpt lat="45.16808" lon="0.30024">
        <ele>115</ele>
        <time>2011-12-01 14:13:52</time>
      </trkpt>
      <trkpt lat="45.16784" lon="0.29985">
        <ele>114</ele>
        <time>2011-12-01 14:14:07</time>
      </trkpt>
      <trkpt lat="45.16759" lon="0.29945">
        <ele>115</ele>
        <time>2011-12-01 14:14:21</time>
      </trkpt>
      <trkpt lat="45.16732" lon="0.29908">
        <ele>116</ele>
        <time>2011-12-01 14:14:35</time>
      </trkpt>
      <trkpt lat="45.16708" lon="0.29867">
        <ele>116</ele>
        <time>2011-12-01 14:14:48</time>
      </trkpt>
      <trkpt lat="45.16693" lon="0.29817">
        <ele>118</ele>
        <time>2011-12-01 14:15:02</time>
      </trkpt>
      <trkpt lat="45.16689" lon="0.29765">
        <ele>118</ele>
        <time>2011-12-01 14:15:17</time>
      </trkpt>
      <trkpt lat="45.16688" lon="0.29713">
        <ele>120</ele>
        <time>2011-12-01 14:15:33</time>
      </trkpt>
      <trkpt lat="45.16695" lon="0.29662">
        <ele>123</ele>
        <time>2011-12-01 14:15:44</time>
      </trkpt>
      <trkpt lat="45.16707" lon="0.2961">
        <ele>123</ele>
        <time>2011-12-01 14:15:54</time>
      </trkpt>
      <trkpt lat="45.16704" lon="0.29558">
        <ele>125</ele>
        <time>2011-12-01 14:16:06</time>
      </trkpt>
      <trkpt lat="45.16708" lon="0.29507">
        <ele>126</ele>
        <time>2011-12-01 14:16:21</time>
      </trkpt>
      <trkpt lat="45.16713" lon="0.29456">
        <ele>127</ele>
        <time>2011-12-01 14:16:34</time>
      </trkpt>
      <trkpt lat="45.16709" lon="0.29404">
        <ele>129</ele>
        <time>2011-12-01 14:16:47</time>
      </trkpt>
      <trkpt lat="45.16711" lon="0.29352">
        <ele>130</ele>
        <time>2011-12-01 14:17:00</time>
      </trkpt>
      <trkpt lat="45.16715" lon="0.293">
        <ele>130</ele>
        <time>2011-12-01 14:17:11</time>
      </trkpt>
      <trkpt lat="45.16705" lon="0.29249">
        <ele>129</ele>
        <time>2011-12-01 14:17:28</time>
      </trkpt>
      <trkpt lat="45.1669" lon="0.29197">
        <ele>128</ele>
        <time>2011-12-01 14:18:41</time>
      </trkpt>
      <trkpt lat="45.16689" lon="0.29146">
        <ele>126</ele>
        <time>2011-12-01 14:18:48</time>
      </trkpt>
      <trkpt lat="45.16694" lon="0.29095">
        <ele>125</ele>
        <time>2011-12-01 14:18:56</time>
      </trkpt>
      <trkpt lat="45.16678" lon="0.29044">
        <ele>124</ele>
        <time>2011-12-01 14:19:04</time>
      </trkpt>
      <trkpt lat="45.16663" lon="0.28996">
        <ele>124</ele>
        <time>2011-12-01 14:19:15</time>
      </trkpt>
      <trkpt lat="45.16646" lon="0.28951">
        <ele>121</ele>
        <time>2011-12-01 14:19:25</time>
      </trkpt>
      <trkpt lat="45.16627" lon="0.28908">
        <ele>120</ele>
        <time>2011-12-01 14:19:32</time>
      </trkpt>
      <trkpt lat="45.16604" lon="0.28862">
        <ele>120</ele>
        <time>2011-12-01 14:19:39</time>
      </trkpt>
      <trkpt lat="45.16582" lon="0.2882">
        <ele>119</ele>
        <time>2011-12-01 14:19:46</time>
      </trkpt>
      <trkpt lat="45.1657" lon="0.28769">
        <ele>119</ele>
        <time>2011-12-01 14:19:54</time>
      </trkpt>
      <trkpt lat="45.1656" lon="0.28716">
        <ele>120</ele>
        <time>2011-12-01 14:20:06</time>
      </trkpt>
      <trkpt lat="45.16533" lon="0.28683">
        <ele>120</ele>
        <time>2011-12-01 14:20:18</time>
      </trkpt>
      <trkpt lat="45.16551" lon="0.28636">
        <ele>120</ele>
        <time>2011-12-01 14:20:32</time>
      </trkpt>
      <trkpt lat="45.16568" lon="0.28591">
        <ele>120</ele>
        <time>2011-12-01 14:20:46</time>
      </trkpt>
      <trkpt lat="45.16577" lon="0.2854">
        <ele>121</ele>
        <time>2011-12-01 14:21:04</time>
      </trkpt>
      <trkpt lat="45.16597" lon="0.28493">
        <ele>123</ele>
        <time>2011-12-01 14:21:17</time>
      </trkpt>
      <trkpt lat="45.16578" lon="0.28536">
        <ele>121</ele>
        <time>2011-12-01 14:22:02</time>
      </trkpt>
      <trkpt lat="45.16568" lon="0.28585">
        <ele>120</ele>
        <time>2011-12-01 14:22:54</time>
      </trkpt>
      <trkpt lat="45.16554" lon="0.28636">
        <ele>120</ele>
        <time>2011-12-01 14:23:07</time>
      </trkpt>
      <trkpt lat="45.16591" lon="0.28649">
        <ele>119</ele>
        <time>2011-12-01 14:23:22</time>
      </trkpt>
      <trkpt lat="45.16627" lon="0.28632">
        <ele>120</ele>
        <time>2011-12-01 14:23:34</time>
      </trkpt>
      <trkpt lat="45.16655" lon="0.28597">
        <ele>121</ele>
        <time>2011-12-01 14:33:02</time>
      </trkpt>
      <trkpt lat="45.16689" lon="0.28578">
        <ele>122</ele>
        <time>2011-12-01 14:33:13</time>
      </trkpt>
      <trkpt lat="45.16725" lon="0.28557">
        <ele>121</ele>
        <time>2011-12-01 14:33:27</time>
      </trkpt>
      <trkpt lat="45.16755" lon="0.28529">
        <ele>120</ele>
        <time>2011-12-01 14:33:38</time>
      </trkpt>
      <trkpt lat="45.16786" lon="0.28494">
        <ele>120</ele>
        <time>2011-12-01 14:33:45</time>
      </trkpt>
      <trkpt lat="45.1681" lon="0.28453">
        <ele>120</ele>
        <time>2011-12-01 14:33:52</time>
      </trkpt>
      <trkpt lat="45.16832" lon="0.28413">
        <ele>120</ele>
        <time>2011-12-01 14:34:00</time>
      </trkpt>
      <trkpt lat="45.16861" lon="0.28382">
        <ele>118</ele>
        <time>2011-12-01 14:34:08</time>
      </trkpt>
      <trkpt lat="45.16893" lon="0.28348">
        <ele>117</ele>
        <time>2011-12-01 14:34:16</time>
      </trkpt>
      <trkpt lat="45.16921" lon="0.2831">
        <ele>115</ele>
        <time>2011-12-01 14:34:24</time>
      </trkpt>
      <trkpt lat="45.16941" lon="0.28263">
        <ele>114</ele>
        <time>2011-12-01 14:34:31</time>
      </trkpt>
      <trkpt lat="45.16962" lon="0.28217">
        <ele>113</ele>
        <time>2011-12-01 14:34:38</time>
      </trkpt>
      <trkpt lat="45.16998" lon="0.2823">
        <ele>113</ele>
        <time>2011-12-01 14:36:07</time>
      </trkpt>
      <trkpt lat="45.17033" lon="0.28258">
        <ele>113</ele>
        <time>2011-12-01 14:36:16</time>
      </trkpt>
      <trkpt lat="45.17068" lon="0.28287">
        <ele>113</ele>
        <time>2011-12-01 14:36:24</time>
      </trkpt>
      <trkpt lat="45.17099" lon="0.2832">
        <ele>112</ele>
        <time>2011-12-01 14:36:32</time>
      </trkpt>
      <trkpt lat="45.17129" lon="0.28356">
        <ele>111</ele>
        <time>2011-12-01 14:36:41</time>
      </trkpt>
      <trkpt lat="45.17165" lon="0.2838">
        <ele>111</ele>
        <time>2011-12-01 14:36:50</time>
      </trkpt>
      <trkpt lat="45.17197" lon="0.28404">
        <ele>111</ele>
        <time>2011-12-01 14:36:59</time>
      </trkpt>
      <trkpt lat="45.17227" lon="0.28436">
        <ele>111</ele>
        <time>2011-12-01 14:37:09</time>
      </trkpt>
      <trkpt lat="45.17262" lon="0.28453">
        <ele>112</ele>
        <time>2011-12-01 14:37:19</time>
      </trkpt>
      <trkpt lat="45.17301" lon="0.28453">
        <ele>112</ele>
        <time>2011-12-01 14:37:29</time>
      </trkpt>
      <trkpt lat="45.17335" lon="0.28471">
        <ele>110</ele>
        <time>2011-12-01 14:37:36</time>
      </trkpt>
      <trkpt lat="45.17378" lon="0.2847">
        <ele>109</ele>
        <time>2011-12-01 14:37:42</time>
      </trkpt>
      <trkpt lat="45.17415" lon="0.28475">
        <ele>108</ele>
        <time>2011-12-01 14:37:46</time>
      </trkpt>
      <trkpt lat="45.17458" lon="0.28487">
        <ele>103</ele>
        <time>2011-12-01 14:37:50</time>
      </trkpt>
      <trkpt lat="45.17502" lon="0.28502">
        <ele>99</ele>
        <time>2011-12-01 14:37:54</time>
      </trkpt>
      <trkpt lat="45.17544" lon="0.2851">
        <ele>98</ele>
        <time>2011-12-01 14:37:58</time>
      </trkpt>
      <trkpt lat="45.17583" lon="0.28522">
        <ele>97</ele>
        <time>2011-12-01 14:38:02</time>
      </trkpt>
      <trkpt lat="45.17619" lon="0.28532">
        <ele>95</ele>
        <time>2011-12-01 14:38:06</time>
      </trkpt>
      <trkpt lat="45.17657" lon="0.2856">
        <ele>93</ele>
        <time>2011-12-01 14:38:11</time>
      </trkpt>
      <trkpt lat="45.17697" lon="0.28572">
        <ele>90</ele>
        <time>2011-12-01 14:38:16</time>
      </trkpt>
      <trkpt lat="45.17741" lon="0.28576">
        <ele>87</ele>
        <time>2011-12-01 14:38:21</time>
      </trkpt>
      <trkpt lat="45.17778" lon="0.28579">
        <ele>81</ele>
        <time>2011-12-01 14:38:27</time>
      </trkpt>
      <trkpt lat="45.17791" lon="0.2863">
        <ele>79</ele>
        <time>2011-12-01 14:38:43</time>
      </trkpt>
      <trkpt lat="45.17827" lon="0.28639">
        <ele>77</ele>
        <time>2011-12-01 14:38:54</time>
      </trkpt>
      <trkpt lat="45.17869" lon="0.28628">
        <ele>72</ele>
        <time>2011-12-01 14:39:00</time>
      </trkpt>
      <trkpt lat="45.17911" lon="0.28635">
        <ele>71</ele>
        <time>2011-12-01 14:39:06</time>
      </trkpt>
      <trkpt lat="45.17949" lon="0.28643">
        <ele>71</ele>
        <time>2011-12-01 14:39:15</time>
      </trkpt>
      <trkpt lat="45.17985" lon="0.28646">
        <ele>71</ele>
        <time>2011-12-01 14:39:29</time>
      </trkpt>
      <trkpt lat="45.18022" lon="0.28649">
        <ele>74</ele>
        <time>2011-12-01 14:39:48</time>
      </trkpt>
      <trkpt lat="45.18058" lon="0.28659">
        <ele>76</ele>
        <time>2011-12-01 14:40:06</time>
      </trkpt>
      <trkpt lat="45.18075" lon="0.28708">
        <ele>77</ele>
        <time>2011-12-01 14:40:24</time>
      </trkpt>
      <trkpt lat="45.18111" lon="0.28724">
        <ele>83</ele>
        <time>2011-12-01 14:40:38</time>
      </trkpt>
      <trkpt lat="45.18146" lon="0.28736">
        <ele>85</ele>
        <time>2011-12-01 14:40:54</time>
      </trkpt>
      <trkpt lat="45.18183" lon="0.28748">
        <ele>88</ele>
        <time>2011-12-01 14:41:11</time>
      </trkpt>
      <trkpt lat="45.18212" lon="0.28778">
        <ele>91</ele>
        <time>2011-12-01 14:41:28</time>
      </trkpt>
      <trkpt lat="45.18228" lon="0.28825">
        <ele>92</ele>
        <time>2011-12-01 14:41:50</time>
      </trkpt>
      <trkpt lat="45.18227" lon="0.28879">
        <ele>96</ele>
        <time>2011-12-01 14:42:09</time>
      </trkpt>
      <trkpt lat="45.18243" lon="0.28927">
        <ele>97</ele>
        <time>2011-12-01 14:42:28</time>
      </trkpt>
      <trkpt lat="45.18269" lon="0.28964">
        <ele>98</ele>
        <time>2011-12-01 14:42:47</time>
      </trkpt>
      <trkpt lat="45.18296" lon="0.29003">
        <ele>100</ele>
        <time>2011-12-01 14:43:08</time>
      </trkpt>
      <trkpt lat="45.18324" lon="0.29036">
        <ele>101</ele>
        <time>2011-12-01 14:43:27</time>
      </trkpt>
      <trkpt lat="45.18354" lon="0.29068">
        <ele>101</ele>
        <time>2011-12-01 14:43:46</time>
      </trkpt>
      <trkpt lat="45.18379" lon="0.29105">
        <ele>103</ele>
        <time>2011-12-01 14:44:04</time>
      </trkpt>
      <trkpt lat="45.18407" lon="0.29139">
        <ele>103</ele>
        <time>2011-12-01 14:44:21</time>
      </trkpt>
      <trkpt lat="45.18435" lon="0.29174">
        <ele>104</ele>
        <time>2011-12-01 14:44:37</time>
      </trkpt>
      <trkpt lat="45.18467" lon="0.29199">
        <ele>105</ele>
        <time>2011-12-01 14:44:52</time>
      </trkpt>
      <trkpt lat="45.18503" lon="0.29212">
        <ele>106</ele>
        <time>2011-12-01 14:45:05</time>
      </trkpt>
      <trkpt lat="45.1854" lon="0.29215">
        <ele>106</ele>
        <time>2011-12-01 14:45:21</time>
      </trkpt>
      <trkpt lat="45.18577" lon="0.2922">
        <ele>107</ele>
        <time>2011-12-01 14:45:40</time>
      </trkpt>
      <trkpt lat="45.18615" lon="0.2922">
        <ele>108</ele>
        <time>2011-12-01 14:45:52</time>
      </trkpt>
      <trkpt lat="45.18652" lon="0.29213">
        <ele>109</ele>
        <time>2011-12-01 14:46:04</time>
      </trkpt>
      <trkpt lat="45.18689" lon="0.29203">
        <ele>112</ele>
        <time>2011-12-01 14:46:19</time>
      </trkpt>
      <trkpt lat="45.18726" lon="0.29194">
        <ele>114</ele>
        <time>2011-12-01 14:46:35</time>
      </trkpt>
      <trkpt lat="45.18763" lon="0.29186">
        <ele>118</ele>
        <time>2011-12-01 14:46:53</time>
      </trkpt>
      <trkpt lat="45.18799" lon="0.29169">
        <ele>120</ele>
        <time>2011-12-01 14:47:11</time>
      </trkpt>
      <trkpt lat="45.18834" lon="0.29153">
        <ele>125</ele>
        <time>2011-12-01 14:47:28</time>
      </trkpt>
      <trkpt lat="45.18869" lon="0.29145">
        <ele>127</ele>
        <time>2011-12-01 14:47:44</time>
      </trkpt>
      <trkpt lat="45.18908" lon="0.29141">
        <ele>127</ele>
        <time>2011-12-01 14:47:59</time>
      </trkpt>
      <trkpt lat="45.18942" lon="0.29123">
        <ele>129</ele>
        <time>2011-12-01 14:48:14</time>
      </trkpt>
      <trkpt lat="45.18976" lon="0.29107">
        <ele>129</ele>
        <time>2011-12-01 14:48:28</time>
      </trkpt>
      <trkpt lat="45.19014" lon="0.29103">
        <ele>129</ele>
        <time>2011-12-01 14:48:46</time>
      </trkpt>
      <trkpt lat="45.18999" lon="0.29054">
        <ele>129</ele>
        <time>2011-12-01 14:50:16</time>
      </trkpt>
      <trkpt lat="45.18968" lon="0.2902">
        <ele>129</ele>
        <time>2011-12-01 14:50:25</time>
      </trkpt>
      <trkpt lat="45.18934" lon="0.28991">
        <ele>128</ele>
        <time>2011-12-01 14:50:31</time>
      </trkpt>
      <trkpt lat="45.18901" lon="0.28957">
        <ele>126</ele>
        <time>2011-12-01 14:50:37</time>
      </trkpt>
      <trkpt lat="45.18881" lon="0.28911">
        <ele>124</ele>
        <time>2011-12-01 14:50:43</time>
      </trkpt>
      <trkpt lat="45.18884" lon="0.28859">
        <ele>123</ele>
        <time>2011-12-01 14:51:17</time>
      </trkpt>
      <trkpt lat="45.18847" lon="0.28853">
        <ele>122</ele>
        <time>2011-12-01 14:51:36</time>
      </trkpt>
      <trkpt lat="45.18812" lon="0.2884">
        <ele>119</ele>
        <time>2011-12-01 14:52:16</time>
      </trkpt>
      <trkpt lat="45.18775" lon="0.28834">
        <ele>118</ele>
        <time>2011-12-01 14:52:26</time>
      </trkpt>
      <trkpt lat="45.18747" lon="0.28799">
        <ele>115</ele>
        <time>2011-12-01 14:52:33</time>
      </trkpt>
      <trkpt lat="45.18734" lon="0.2875">
        <ele>117</ele>
        <time>2011-12-01 14:52:39</time>
      </trkpt>
      <trkpt lat="45.18716" lon="0.28704">
        <ele>115</ele>
        <time>2011-12-01 14:52:47</time>
      </trkpt>
      <trkpt lat="45.18692" lon="0.28661">
        <ele>114</ele>
        <time>2011-12-01 14:52:58</time>
      </trkpt>
      <trkpt lat="45.18668" lon="0.28616">
        <ele>114</ele>
        <time>2011-12-01 14:53:07</time>
      </trkpt>
      <trkpt lat="45.18646" lon="0.28569">
        <ele>111</ele>
        <time>2011-12-01 14:53:15</time>
      </trkpt>
      <trkpt lat="45.18627" lon="0.28521">
        <ele>110</ele>
        <time>2011-12-01 14:53:23</time>
      </trkpt>
      <trkpt lat="45.18612" lon="0.28471">
        <ele>108</ele>
        <time>2011-12-01 14:53:31</time>
      </trkpt>
      <trkpt lat="45.18601" lon="0.28421">
        <ele>106</ele>
        <time>2011-12-01 14:53:44</time>
      </trkpt>
      <trkpt lat="45.18624" lon="0.28378">
        <ele>105</ele>
        <time>2011-12-01 14:54:21</time>
      </trkpt>
      <trkpt lat="45.18648" lon="0.28336">
        <ele>105</ele>
        <time>2011-12-01 14:54:37</time>
      </trkpt>
      <trkpt lat="45.18671" lon="0.28294">
        <ele>105</ele>
        <time>2011-12-01 14:54:52</time>
      </trkpt>
      <trkpt lat="45.18694" lon="0.28253">
        <ele>105</ele>
        <time>2011-12-01 14:55:06</time>
      </trkpt>
      <trkpt lat="45.18718" lon="0.28211">
        <ele>103</ele>
        <time>2011-12-01 14:55:16</time>
      </trkpt>
      <trkpt lat="45.18743" lon="0.2817">
        <ele>101</ele>
        <time>2011-12-01 14:55:25</time>
      </trkpt>
      <trkpt lat="45.18767" lon="0.2813">
        <ele>99</ele>
        <time>2011-12-01 14:55:35</time>
      </trkpt>
      <trkpt lat="45.18786" lon="0.28085">
        <ele>97</ele>
        <time>2011-12-01 14:56:01</time>
      </trkpt>
      <trkpt lat="45.18758" lon="0.28118">
        <ele>98</ele>
        <time>2011-12-01 14:57:26</time>
      </trkpt>
      <trkpt lat="45.18735" lon="0.28157">
        <ele>101</ele>
        <time>2011-12-01 14:57:57</time>
      </trkpt>
      <trkpt lat="45.18712" lon="0.28197">
        <ele>103</ele>
        <time>2011-12-01 14:58:52</time>
      </trkpt>
      <trkpt lat="45.18688" lon="0.28236">
        <ele>103</ele>
        <time>2011-12-01 14:59:36</time>
      </trkpt>
      <trkpt lat="45.18665" lon="0.28277">
        <ele>103</ele>
        <time>2011-12-01 15:00:10</time>
      </trkpt>
      <trkpt lat="45.18631" lon="0.2826">
        <ele>103</ele>
        <time>2011-12-01 15:01:11</time>
      </trkpt>
      <trkpt lat="45.18595" lon="0.28241">
        <ele>101</ele>
        <time>2011-12-01 15:01:23</time>
      </trkpt>
      <trkpt lat="45.18558" lon="0.28221">
        <ele>98</ele>
        <time>2011-12-01 15:01:32</time>
      </trkpt>
      <trkpt lat="45.18533" lon="0.28184">
        <ele>97</ele>
        <time>2011-12-01 15:01:39</time>
      </trkpt>
      <trkpt lat="45.18512" lon="0.28136">
        <ele>96</ele>
        <time>2011-12-01 15:01:47</time>
      </trkpt>
      <trkpt lat="45.18476" lon="0.28119">
        <ele>94</ele>
        <time>2011-12-01 15:01:55</time>
      </trkpt>
      <trkpt lat="45.18451" lon="0.28078">
        <ele>94</ele>
        <time>2011-12-01 15:02:09</time>
      </trkpt>
      <trkpt lat="45.18427" lon="0.28039">
        <ele>93</ele>
        <time>2011-12-01 15:02:16</time>
      </trkpt>
      <trkpt lat="45.18412" lon="0.27992">
        <ele>89</ele>
        <time>2011-12-01 15:03:45</time>
      </trkpt>
      <trkpt lat="45.1838" lon="0.2796">
        <ele>84</ele>
        <time>2011-12-01 15:04:39</time>
      </trkpt>
      <trkpt lat="45.18344" lon="0.27931">
        <ele>80</ele>
        <time>2011-12-01 15:04:46</time>
      </trkpt>
      <trkpt lat="45.18328" lon="0.27874">
        <ele>69</ele>
        <time>2011-12-01 15:04:52</time>
      </trkpt>
      <trkpt lat="45.18337" lon="0.27816">
        <ele>69</ele>
        <time>2011-12-01 15:04:57</time>
      </trkpt>
      <trkpt lat="45.18357" lon="0.27772">
        <ele>69</ele>
        <time>2011-12-01 15:05:01</time>
      </trkpt>
      <trkpt lat="45.18377" lon="0.27728">
        <ele>66</ele>
        <time>2011-12-01 15:05:05</time>
      </trkpt>
      <trkpt lat="45.184" lon="0.27679">
        <ele>66</ele>
        <time>2011-12-01 15:05:10</time>
      </trkpt>
      <trkpt lat="45.18422" lon="0.27634">
        <ele>66</ele>
        <time>2011-12-01 15:05:15</time>
      </trkpt>
      <trkpt lat="45.18413" lon="0.27584">
        <ele>63</ele>
        <time>2011-12-01 15:05:30</time>
      </trkpt>
      <trkpt lat="45.1838" lon="0.27556">
        <ele>64</ele>
        <time>2011-12-01 15:05:41</time>
      </trkpt>
      <trkpt lat="45.18347" lon="0.27528">
        <ele>64</ele>
        <time>2011-12-01 15:05:50</time>
      </trkpt>
      <trkpt lat="45.18317" lon="0.275">
        <ele>67</ele>
        <time>2011-12-01 15:06:02</time>
      </trkpt>
      <trkpt lat="45.18285" lon="0.27474">
        <ele>69</ele>
        <time>2011-12-01 15:07:22</time>
      </trkpt>
      <trkpt lat="45.18252" lon="0.27496">
        <ele>70</ele>
        <time>2011-12-01 15:07:45</time>
      </trkpt>
      <trkpt lat="45.18217" lon="0.2751">
        <ele>72</ele>
        <time>2011-12-01 15:08:13</time>
      </trkpt>
      <trkpt lat="45.18185" lon="0.27484">
        <ele>73</ele>
        <time>2011-12-01 15:08:40</time>
      </trkpt>
      <trkpt lat="45.1816" lon="0.27446">
        <ele>75</ele>
        <time>2011-12-01 15:08:56</time>
      </trkpt>
      <trkpt lat="45.18131" lon="0.27409">
        <ele>72</ele>
        <time>2011-12-01 15:09:05</time>
      </trkpt>
      <trkpt lat="45.18101" lon="0.27372">
        <ele>72</ele>
        <time>2011-12-01 15:10:05</time>
      </trkpt>
      <trkpt lat="45.18066" lon="0.27346">
        <ele>74</ele>
        <time>2011-12-01 15:10:14</time>
      </trkpt>
      <trkpt lat="45.18037" lon="0.27312">
        <ele>73</ele>
        <time>2011-12-01 15:10:23</time>
      </trkpt>
      <trkpt lat="45.18002" lon="0.2729">
        <ele>73</ele>
        <time>2011-12-01 15:10:32</time>
      </trkpt>
      <trkpt lat="45.17965" lon="0.27287">
        <ele>73</ele>
        <time>2011-12-01 15:10:43</time>
      </trkpt>
      <trkpt lat="45.1793" lon="0.273">
        <ele>73</ele>
        <time>2011-12-01 15:11:01</time>
      </trkpt>
      <trkpt lat="45.17899" lon="0.27329">
        <ele>73</ele>
        <time>2011-12-01 15:11:11</time>
      </trkpt>
      <trkpt lat="45.17869" lon="0.27359">
        <ele>76</ele>
        <time>2011-12-01 15:11:21</time>
      </trkpt>
      <trkpt lat="45.17835" lon="0.27379">
        <ele>76</ele>
        <time>2011-12-01 15:11:35</time>
      </trkpt>
      <trkpt lat="45.17795" lon="0.27364">
        <ele>76</ele>
        <time>2011-12-01 15:11:44</time>
      </trkpt>
      <trkpt lat="45.17761" lon="0.27328">
        <ele>75</ele>
        <time>2011-12-01 15:11:51</time>
      </trkpt>
      <trkpt lat="45.17727" lon="0.27306">
        <ele>79</ele>
        <time>2011-12-01 15:11:59</time>
      </trkpt>
      <trkpt lat="45.17694" lon="0.27285">
        <ele>80</ele>
        <time>2011-12-01 15:12:27</time>
      </trkpt>
      <trkpt lat="45.1766" lon="0.27264">
        <ele>82</ele>
        <time>2011-12-01 15:12:45</time>
      </trkpt>
      <trkpt lat="45.17623" lon="0.27259">
        <ele>83</ele>
        <time>2011-12-01 15:13:05</time>
      </trkpt>
      <trkpt lat="45.17585" lon="0.27266">
        <ele>82</ele>
        <time>2011-12-01 15:13:18</time>
      </trkpt>
      <trkpt lat="45.17546" lon="0.27261">
        <ele>82</ele>
        <time>2011-12-01 15:13:29</time>
      </trkpt>
      <trkpt lat="45.17511" lon="0.27243">
        <ele>79</ele>
        <time>2011-12-01 15:13:41</time>
      </trkpt>
      <trkpt lat="45.17471" lon="0.27231">
        <ele>78</ele>
        <time>2011-12-01 15:13:57</time>
      </trkpt>
      <trkpt lat="45.17436" lon="0.2722">
        <ele>77</ele>
        <time>2011-12-01 15:14:02</time>
      </trkpt>
      <trkpt lat="45.17401" lon="0.27197">
        <ele>77</ele>
        <time>2011-12-01 15:14:09</time>
      </trkpt>
      <trkpt lat="45.17368" lon="0.27172">
        <ele>77</ele>
        <time>2011-12-01 15:14:19</time>
      </trkpt>
      <trkpt lat="45.17333" lon="0.27152">
        <ele>75</ele>
        <time>2011-12-01 15:14:30</time>
      </trkpt>
      <trkpt lat="45.17295" lon="0.27147">
        <ele>75</ele>
        <time>2011-12-01 15:14:43</time>
      </trkpt>
      <trkpt lat="45.17269" lon="0.27111">
        <ele>75</ele>
        <time>2011-12-01 15:15:00</time>
      </trkpt>
      <trkpt lat="45.17253" lon="0.27062">
        <ele>73</ele>
        <time>2011-12-01 15:15:12</time>
      </trkpt>
      <trkpt lat="45.17267" lon="0.27112">
        <ele>75</ele>
        <time>2011-12-01 15:15:37</time>
      </trkpt>
      <trkpt lat="45.17233" lon="0.27145">
        <ele>76</ele>
        <time>2011-12-01 15:15:50</time>
      </trkpt>
      <trkpt lat="45.17198" lon="0.2717">
        <ele>78</ele>
        <time>2011-12-01 15:15:57</time>
      </trkpt>
      <trkpt lat="45.17163" lon="0.27192">
        <ele>77</ele>
        <time>2011-12-01 15:16:13</time>
      </trkpt>
      <trkpt lat="45.17128" lon="0.27208">
        <ele>78</ele>
        <time>2011-12-01 15:16:27</time>
      </trkpt>
      <trkpt lat="45.17095" lon="0.27232">
        <ele>78</ele>
        <time>2011-12-01 15:16:43</time>
      </trkpt>
      <trkpt lat="45.17064" lon="0.27257">
        <ele>80</ele>
        <time>2011-12-01 15:18:06</time>
      </trkpt>
      <trkpt lat="45.17027" lon="0.27271">
        <ele>79</ele>
        <time>2011-12-01 15:21:50</time>
      </trkpt>
      <trkpt lat="45.16995" lon="0.27298">
        <ele>78</ele>
        <time>2011-12-01 15:21:59</time>
      </trkpt>
      <trkpt lat="45.16973" lon="0.27341">
        <ele>81</ele>
        <time>2011-12-01 15:22:11</time>
      </trkpt>
      <trkpt lat="45.1697" lon="0.27393">
        <ele>82</ele>
        <time>2011-12-01 15:22:24</time>
      </trkpt>
      <trkpt lat="45.16933" lon="0.27408">
        <ele>81</ele>
        <time>2011-12-01 15:22:35</time>
      </trkpt>
      <trkpt lat="45.16899" lon="0.27423">
        <ele>81</ele>
        <time>2011-12-01 15:22:49</time>
      </trkpt>
      <trkpt lat="45.16872" lon="0.27461">
        <ele>83</ele>
        <time>2011-12-01 15:23:06</time>
      </trkpt>
      <trkpt lat="45.16836" lon="0.27478">
        <ele>82</ele>
        <time>2011-12-01 15:23:29</time>
      </trkpt>
      <trkpt lat="45.16806" lon="0.27511">
        <ele>83</ele>
        <time>2011-12-01 15:23:47</time>
      </trkpt>
      <trkpt lat="45.16774" lon="0.27535">
        <ele>83</ele>
        <time>2011-12-01 15:24:05</time>
      </trkpt>
      <trkpt lat="45.16743" lon="0.27562">
        <ele>86</ele>
        <time>2011-12-01 15:24:24</time>
      </trkpt>
      <trkpt lat="45.16718" lon="0.27599">
        <ele>89</ele>
        <time>2011-12-01 15:24:43</time>
      </trkpt>
      <trkpt lat="45.16693" lon="0.27638">
        <ele>91</ele>
        <time>2011-12-01 15:25:02</time>
      </trkpt>
      <trkpt lat="45.16663" lon="0.27668">
        <ele>93</ele>
        <time>2011-12-01 15:26:12</time>
      </trkpt>
      <trkpt lat="45.1664" lon="0.27707">
        <ele>95</ele>
        <time>2011-12-01 15:27:33</time>
      </trkpt>
      <trkpt lat="45.1662" lon="0.2775">
        <ele>96</ele>
        <time>2011-12-01 15:30:13</time>
      </trkpt>
      <trkpt lat="45.16588" lon="0.27774">
        <ele>98</ele>
        <time>2011-12-01 15:30:42</time>
      </trkpt>
      <trkpt lat="45.16551" lon="0.27776">
        <ele>101</ele>
        <time>2011-12-01 15:31:07</time>
      </trkpt>
      <trkpt lat="45.16514" lon="0.27776">
        <ele>102</ele>
        <time>2011-12-01 15:31:25</time>
      </trkpt>
      <trkpt lat="45.16484" lon="0.27807">
        <ele>102</ele>
        <time>2011-12-01 15:31:42</time>
      </trkpt>
      <trkpt lat="45.16456" lon="0.27841">
        <ele>104</ele>
        <time>2011-12-01 15:32:02</time>
      </trkpt>
      <trkpt lat="45.16425" lon="0.27869">
        <ele>104</ele>
        <time>2011-12-01 15:32:23</time>
      </trkpt>
      <trkpt lat="45.16394" lon="0.27898">
        <ele>103</ele>
        <time>2011-12-01 15:32:37</time>
      </trkpt>
      <trkpt lat="45.16365" lon="0.27919">
        <ele>103.7</ele>
      </trkpt>
      <trkpt lat="45.16342" lon="0.27964">
        <ele>103.9</ele>
      </trkpt>
      <trkpt lat="45.16318" lon="0.27977">
        <ele>100.7</ele>
      </trkpt>
      <trkpt lat="45.16285" lon="0.27966">
        <ele>98.8</ele>
      </trkpt>
      <trkpt lat="45.16211" lon="0.27916">
        <ele>94</ele>
      </trkpt>
      <trkpt lat="45.16218" lon="0.28034">
        <ele>99.3</ele>
      </trkpt>
      <trkpt lat="45.16197" lon="0.28092">
        <ele>101.6</ele>
      </trkpt>
      <trkpt lat="45.16025" lon="0.28457">
        <ele>96.5</ele>
      </trkpt>
      <trkpt lat="45.15949" lon="0.28543">
        <ele>91.8</ele>
      </trkpt>
      <trkpt lat="45.15894" lon="0.28646">
        <ele>92.6</ele>
      </trkpt>
      <trkpt lat="45.1579" lon="0.28659">
        <ele>99.5</ele>
      </trkpt>
      <trkpt lat="45.15776" lon="0.2864">
        <ele>100</ele>
      </trkpt>
      <trkpt lat="45.15783" lon="0.28557">
        <ele>96.1</ele>
      </trkpt>
      <trkpt lat="45.15824" lon="0.28316">
        <ele>95.9</ele>
      </trkpt>
      <trkpt lat="45.15818" lon="0.28243">
        <ele>96.3</ele>
      </trkpt>
    </trkseg>
  </trk>
</gpx>